Orbital Elements at Epoch 2459200.5 (2020-Dec-17.0) TDB
Reference: JPL 24 (heliocentric ecliptic J2000)
Element | Value | Uncertainty (1-sigma) | Units |
e | .1256939187994713 | 5.4588e-08 | |
a | 2.961605861452805 | 3.2093e-08 | au |
q | 2.589350014787318 | 1.6395e-07 | au |
i | 13.9777044577633 | 6.7287e-06 | deg |
node | 48.72014109462914 | 2.9312e-05 | deg |
peri | 29.55669443853623 | 4.5608e-05 | deg |
M | 66.81719847471267 | 3.1237e-05 | deg |
tp | 2458854.978497151265 (2020-Jan-06.47849715) | 0.00016244 | TDB |
period | 1861.612636642046 5.10 | 3.026e-05 8.285e-08 | d yr |
n | .1933807242785823 | 3.1433e-09 | deg/d |
Q | 3.333861708118292 | 3.6127e-08 | au |
|
| | Orbit Determination Parameters
Additional Information
|